Regional Weather Roundup
Issued by NWS

Home | Current Version | Previous Version | Text Only | Print | Product List | Glossary Off
Versions: 1 2 3 4 5 6 7 8 9 10 11 12 13 14 15 16 17 18 19 20 21 22 23 24 25 26 27 28 29 30 31 32 33 34 35 36 37 38 39 40 41 42 43 44 45 46 47 48 49 50

000
ASUS43 KDMX 280701
RWRIA

WEATHER ROUNDUP FOR IOWA
NATIONAL WEATHER SERVICE DES MOINES IA
200 AM CDT FRI JUL 28 2017

NOTE: "FAIR" INDICATES FEW OR NO CLOUDS BELOW 12,000 FEET WITH NO
SIGNIFICANT WEATHER AND/OR OBSTRUCTIONS TO VISIBILITY.

* - THESE STATIONS ARE NOT NWS STATIONS...THUS NOT UNDER NWS
QUALITY CONTROL.  THEY ALSO DO NOT REPORT WEATHER SUCH
AS PRECIPITATION OR FOG.

IAZ001>003-012>014-020>022-031>034-043>046-280800-
   NORTHWEST IOWA

CITY           SKY/WX    TMP DP  RH WIND       PRES   REMARKS
CARROLL *      CLEAR     64  64 100 CALM      30.04S
DENISON *      CLEAR     64  64 100 CALM      30.06S
ORANGE CITY *  CLEAR     68  63  83 NE5       30.07S
SHELDON *      CLEAR     57  57 100 CALM      30.06S
SIOUX CITY     CLEAR     69  64  84 CALM      30.04S
SPENCER        CLEAR     59  58  96 NW3       30.07R
STORM LAKE *   CLEAR     66  63  88 NE6       30.07R
$$

IAZ055>058-069>071-079>083-090>094-280800-
   SOUTHWEST IOWA

CITY           SKY/WX    TMP DP  RH WIND       PRES   REMARKS
ATLANTIC *     PTCLDY    64  63  94 N3        30.02F
AUDUBON *      CLOUDY    63  61  94 CALM      30.05S
CLARINDA *       N/A     66  64  94 NE5       30.02S
COUNCIL BLFS * PTCLDY    66  66 100 N7        30.03R
CRESTON *      PTCLDY    66  59  77 NE8       30.02F
HARLAN  *      CLEAR     66  64  94 N6        30.07S
LAMONI         PTCLDY    70  62  76 NE5       29.99F
RED OAK *      MOCLDY    64  63  94 CALM      30.01S
SHENANDOAH *   PTCLDY    66  64  94 NE5       30.01S
$$

IAZ047>049-059>061-072>074-084-280800-
   CENTRAL IOWA

CITY           SKY/WX    TMP DP  RH WIND       PRES   REMARKS
AMES           CLEAR     65  65 100 NW3       30.02S
ANKENY *       CLEAR     64  63  94 N3        30.02S
BOONE *        CLEAR     66  63  88 N3        30.02S
CHARITON *     MOCLDY    64  61  88 NE5       29.99F
DES MOINES     CLEAR     70  62  76 N3        30.00S
GRINNELL*      CLEAR     65  61  85 CALM      30.02F
KNOXVILLE *    CLOUDY    70  61  73 NE5       29.98F
MARSHALLTOWN   CLEAR     64  62  93 N3        30.01S
NEWTON *       CLEAR     66  61  82 CALM      30.01S
PELLA *        CLEAR     65  60  83 CALM      30.01S
PERRY *          N/A     64  63  97 N3        30.03S
$$

IAZ004>006-015-016-023>025-035-036-280800-
   NORTH CENTRAL IOWA

CITY           SKY/WX    TMP DP  RH WIND       PRES   REMARKS
ALGONA *       CLEAR     64  64 100 N5        30.06R
ESTHERVILLE    CLEAR     60  60 100 NW5       30.06S
FORT DODGE *   CLEAR     64  61  88 CALM      30.05R
MASON CITY     CLEAR     62  60  93 N6        30.06S
FOREST CITY *    N/A     64  63  94 CALM      30.05S
WEBSTER CITY * CLEAR     63  63 100 N5        30.02R
IOWA FALLS *     N/A     66  63  90 CALM      30.04S
$$

IAZ007>011-017>019-026>030-037>042-050>054-066-280800-
   NORTHEAST IOWA

CITY           SKY/WX    TMP DP  RH WIND       PRES   REMARKS
CHARLES CITY * CLEAR     64  64 100 N5        30.03F
DECORAH *      CLEAR     66  63  88 CALM      30.03S
DUBUQUE          N/A    N/A N/A N/A MISG      30.02F
MONTICELLO *   CLEAR     63  63 100 CALM      30.01S
WATERLOO       CLEAR     64  62  93 CALM      30.00F
$$

IAZ064-065-067-068-078-280800-
   EAST CENTRAL IOWA

CITY           SKY/WX    TMP DP  RH WIND       PRES   REMARKS
DAVENPORT      PTCLDY    63  61  93 NE3       30.02R
IOWA CITY      PTCLDY    70  63  78 NE7       30.01R
MUSCATINE *    CLEAR     66  64  94 CALM      29.98F
QUAD CITIES    CLEAR     65  62  90 N5        29.99R
$$

IAZ062-063-075>077-085>089-095>099-280800-
   SOUTHEAST IOWA

CITY           SKY/WX    TMP DP  RH WIND       PRES   REMARKS
BURLINGTON     CLEAR     70  66  87 NE9       29.96F
FAIRFIELD *    CLEAR     64  63  94 N8        29.98S
FORT MADISON * CLEAR     66  66 100 N3        29.97F
KEOKUK *       CLEAR     72  63  73 NE5       29.95S
OSKALOOSA *      N/A     64  61  90 NE5       29.99F
OTTUMWA        PTCLDY    67  63  87 N6        29.99S
WASHINGTON *   CLEAR     66  64  94 NE6       29.99F
$$

ABBREVIATIONS USED IN REMARKS
   TC - TEMPERATURES IN CELSIUS
  WCI - WIND CHILL INDEX
   HX - HEAT INDEX
  VSB - VISIBILITY
$$




USA.gov is the U.S. government's official web portal to all federal, state and local government web resources and services.